Find Yaogan 36 05 zu 03 xing

NORAD ID: 57456 Int'l Des: 2023-106 Owner: ZZB Country: CN Constellation: yaogan operational
LEOCIRCULAR

Aktuelle Ansicht

3D-Globus wird geladen...

Über Yaogan 36 05 zu 03 xing

Beschreibung wird geladen...

Nächste Überflüge

Passes for default location (London). Set your location on the main map for personalized predictions.

Höhenverlauf

Loading altitude history...

Zweizeiliger Elementsatz

1 57456U 23106E 26146.64685098 .00005025 00000-0 24212-3 0 9990
2 57456 34.9926 214.7123 0008947 159.9247 200.1820 15.18095980157593
Epoch: 26. Mai 2026 • Age: 127 hours

Aktueller Status

Höhe 514.8 km
Geschwindigkeit 7.61 km/s
Subsatellitenpunkt 35.14°N, 50.1°E
Startdatum 26. Juli 2023
Alter 2.8 years
Typ military

Technische Details

Klassifizierung Payload
Masse 300.00 kg
Trockenmasse 300.00 kg
Gesamtmasse 300.00 kg
Länge 2.50 m
Durchmesser 2.50 m
Spannweite 5.00 m
Form Box + 2 Pan
Hersteller DFHZ
Phasenstatus In Orbit
Besitzer/Staat ZZB/CN

Most Searched